Plato, MN

10:00 PM CDT on July 29, 2016 (GMT -0500)
Glencoe Municipal

Weather History for KGYL - January, 2014

Change the Weather History Date:

Tuesday, January 28, 2014

  Actual Average (KHCD) Record (KHCD)
Temperature  
Mean Temperature -7 °F -  
Max Temperature 1 °F 21 °F 46 °F (1989)
Min Temperature -15 °F 1 °F -25 °F (1966)
Degree Days  
Heating Degree Days 72    
Moisture  
Dew Point -16 °F    
Average Humidity 64    
Maximum Humidity 71    
Minimum Humidity 56    
Precipitation  
Precipitation 0.00 in - - ()
Sea Level Pressure  
Sea Level Pressure 30.25 in    
Wind  
Wind Speed 7 mph (WSW)    
Max Wind Speed 16 mph    
Max Gust Speed 22 mph    
Visibility 10 miles    
Events      
Averages and records for this station are not official NWS values.
T = Trace of Precipitation, MM = Missing Value Source: NWS Daily Summary

Daily Weather History Graph

Daily Weather History Graph

Search for Another Location

Airport or City:

Trip Planner

Search our weather history database for the weather conditions in past years. The results will help you decide how hot, cold, wet, or windy it might be!

Date:

Astronomy

Jan. 28, 2014 Rise Set
Actual Time 7:39 AM CST 5:19 PM CST
Civil Twilight 7:08 AM CST 5:50 PM CST
Nautical Twilight 6:33 AM CST 6:26 PM CST
Astronomical Twilight 5:58 AM CST 7:00 PM CST
Moon 5:23 AM CST (1/28) 3:08 PM CST (1/28)
Length of Visible Light 10h 42m
Length of Day
9h 39m
Waning Crescent, 7% of the Moon is Illuminated
Jan 28
Waning Crescent
Jan 30
New
Feb 6
First Quarter
Feb 14
Full
Feb 22
Last Quarter

Hourly Weather History & Observations

Time (CST) Temp. Windchill Dew Point Humidity Pressure Visibility Wind Dir Wind Speed Gust Speed Precip Events Conditions
12:13 AM -13.5 °F -25.7 °F -20.9 °F 70% 30.36 in 10.0 mi SW 4.6 mph - N/A   Clear
12:32 AM -14.3 °F -26.5 °F -21.6 °F 69% 30.36 in 10.0 mi SW 4.6 mph - N/A   Clear
12:53 AM -13.9 °F -23.7 °F -21.1 °F 70% 30.35 in 10.0 mi SW 3.5 mph - N/A   Clear
1:13 AM -13.9 °F -23.7 °F -21.1 °F 70% 30.35 in 10.0 mi SW 3.5 mph - N/A   Clear
1:32 AM -13.9 °F -26.1 °F -21.1 °F 70% 30.35 in 10.0 mi SW 4.6 mph - N/A   Clear
1:53 AM -13.4 °F -27.4 °F -20.4 °F 71% 30.34 in 10.0 mi SW 5.8 mph - N/A   Clear
2:13 AM -13.2 °F -27.2 °F -20.2 °F 71% 30.34 in 10.0 mi SW 5.8 mph - N/A   Clear
2:33 AM -13.2 °F -27.2 °F -20.6 °F 70% 30.34 in 10.0 mi SW 5.8 mph - N/A   Clear
2:52 AM -14.4 °F -28.7 °F -21.6 °F 70% 30.34 in 10.0 mi WSW 5.8 mph - N/A   Clear
3:13 AM -14.8 °F -29.1 °F -22.0 °F 70% 30.33 in 10.0 mi WSW 5.8 mph - N/A   Clear
3:33 AM -14.8 °F -27.2 °F -22.0 °F 70% 30.33 in 10.0 mi WSW 4.6 mph - N/A   Clear
3:53 AM -14.8 °F -27.2 °F -22.0 °F 70% 30.33 in 10.0 mi WSW 4.6 mph - N/A   Clear
4:13 AM -15.3 °F -27.8 °F -22.4 °F 71% 30.33 in 10.0 mi WSW 4.6 mph - N/A   Clear
4:32 AM -15.0 °F -27.4 °F -22.2 °F 70% 30.32 in 10.0 mi WSW 4.6 mph - N/A   Clear
4:53 AM -14.8 °F -30.8 °F -22.0 °F 70% 30.32 in 10.0 mi WSW 6.9 mph - N/A   Clear
5:12 AM -14.8 °F -29.1 °F -22.0 °F 70% 30.33 in 10.0 mi WSW 5.8 mph - N/A   Clear
5:33 AM -14.6 °F -28.9 °F -21.5 °F 71% 30.33 in 10.0 mi SW 5.8 mph - N/A   Clear
5:53 AM -15.0 °F -27.4 °F -22.4 °F 69% 30.32 in 10.0 mi WSW 4.6 mph - N/A   Clear
6:13 AM -15.2 °F -29.5 °F -22.4 °F 70% 30.32 in 10.0 mi WSW 5.8 mph - N/A   Clear
6:33 AM -15.2 °F -27.6 °F -22.7 °F 69% 30.32 in 10.0 mi WSW 4.6 mph - N/A   Clear
6:52 AM -15.2 °F -27.6 °F -22.5 °F 69% 30.33 in 10.0 mi WSW 4.6 mph - N/A   Clear
7:13 AM -15.3 °F -27.8 °F -22.7 °F 69% 30.32 in 10.0 mi WSW 4.6 mph - N/A   Clear
7:33 AM -15.2 °F -29.5 °F -22.2 °F 71% 30.32 in 10.0 mi West 5.8 mph - N/A   Clear
7:53 AM -14.4 °F -26.7 °F -21.6 °F 70% 30.31 in 10.0 mi West 4.6 mph - N/A   Clear
8:13 AM -14.3 °F -26.5 °F -21.5 °F 70% 30.31 in 10.0 mi WSW 4.6 mph - N/A   Clear
8:33 AM -13.4 °F -25.5 °F -20.7 °F 70% 30.31 in 10.0 mi WSW 4.6 mph - N/A   Clear
8:53 AM -11.9 °F -31.0 °F -19.5 °F 69% 30.31 in 10.0 mi West 10.4 mph - N/A   Clear
9:13 AM -10.7 °F -25.8 °F -19.3 °F 66% 30.31 in 10.0 mi West 6.9 mph - N/A   Clear
9:32 AM -10.1 °F -26.5 °F -18.6 °F 66% 30.31 in 10.0 mi West 8.1 mph - N/A   Clear
9:53 AM -9.2 °F -25.4 °F -18.4 °F 64% 30.31 in 10.0 mi West 8.1 mph - N/A   Clear
10:13 AM -8.1 °F -27.3 °F -17.7 °F 63% 30.31 in 10.0 mi West 11.5 mph - N/A   Clear
10:33 AM -7.1 °F -27.6 °F -17.0 °F 62% 30.31 in 10.0 mi West 13.8 mph - N/A   Clear
10:53 AM -6.5 °F -28.4 °F -17.3 °F 60% 30.31 in 10.0 mi West 16.1 mph - N/A   Clear
11:13 AM -5.8 °F -26.8 °F -16.6 °F 60% 30.29 in 10.0 mi West 15.0 mph 18.4 mph N/A   Clear
11:33 AM -5.1 °F -23.5 °F -16.1 °F 59% 30.29 in 10.0 mi West 11.5 mph - N/A   Clear
11:53 AM -4.2 °F -21.4 °F -15.5 °F 58% 30.28 in 10.0 mi West 10.4 mph 19.6 mph N/A   Clear
12:13 PM -3.5 °F -19.5 °F -14.8 °F 58% 30.28 in 10.0 mi WSW 9.2 mph 17.3 mph N/A   Clear
12:33 PM -3.1 °F -19.1 °F -14.6 °F 58% 30.27 in 10.0 mi WSW 9.2 mph 16.1 mph N/A   Clear
12:53 PM -2.6 °F -18.4 °F -13.4 °F 60% 30.26 in 10.0 mi WSW 9.2 mph - N/A   Clear
1:13 PM -2.0 °F -19.6 °F -13.2 °F 59% 30.25 in 10.0 mi WSW 11.5 mph 16.1 mph N/A   Clear
1:33 PM -1.3 °F -16.8 °F -12.5 °F 59% 30.24 in 10.0 mi WSW 9.2 mph 17.3 mph N/A   Clear
1:53 PM -0.8 °F -17.2 °F -12.5 °F 58% 30.23 in 10.0 mi West 10.4 mph 17.3 mph N/A   Clear
2:13 PM -0.0 °F -18.0 °F -12.3 °F 56% 30.23 in 10.0 mi West 12.7 mph 19.6 mph N/A   Clear
2:33 PM 0.3 °F -16.7 °F -12.1 °F 56% 30.23 in 10.0 mi West 11.5 mph 21.9 mph N/A   Clear
2:53 PM 0.7 °F -16.2 °F -11.6 °F 56% 30.21 in 10.0 mi West 11.5 mph 17.3 mph N/A   Clear
3:13 PM 1.0 °F -15.8 °F -11.6 °F 56% 30.20 in 10.0 mi WSW 11.5 mph 16.1 mph N/A   Clear
3:33 PM 1.0 °F -15.8 °F -11.4 °F 56% 30.21 in 10.0 mi West 11.5 mph - N/A   Clear
3:53 PM 1.4 °F -14.5 °F -10.5 °F 58% 30.21 in 10.0 mi West 10.4 mph - N/A   Clear
4:13 PM 1.4 °F -15.3 °F -10.5 °F 58% 30.21 in 10.0 mi West 11.5 mph 18.4 mph N/A   Clear
4:33 PM 1.8 °F -12.0 °F -10.3 °F 57% 30.20 in 10.0 mi WSW 8.1 mph - N/A   Clear
4:53 PM 1.2 °F -12.7 °F -10.5 °F 58% 30.19 in 10.0 mi WSW 8.1 mph - N/A   Clear
5:12 PM 0.3 °F -14.8 °F -10.5 °F 60% 30.17 in 10.0 mi WSW 9.2 mph - N/A   Clear
5:33 PM -0.4 °F -12.0 °F -11.6 °F 59% 30.18 in 10.0 mi WSW 5.8 mph - N/A   Clear
5:53 PM -0.9 °F -12.7 °F -11.4 °F 61% 30.18 in 10.0 mi WSW 5.8 mph - N/A   Clear
6:13 PM -1.1 °F -12.9 °F -11.4 °F 62% 30.17 in 10.0 mi WSW 5.8 mph - N/A   Clear
6:33 PM -1.3 °F -13.1 °F -11.9 °F 61% 30.18 in 10.0 mi WSW 5.8 mph - N/A   Clear
6:53 PM -1.3 °F -14.5 °F -11.7 °F 61% 30.17 in 10.0 mi WSW 6.9 mph - N/A   Clear
7:13 PM -1.7 °F -9.7 °F -12.1 °F 61% 30.17 in 10.0 mi WSW 3.5 mph - N/A   Clear
7:32 PM -2.2 °F -14.2 °F -12.3 °F 62% 30.15 in 10.0 mi WSW 5.8 mph - N/A   Clear
7:53 PM -2.2 °F -16.8 °F -12.5 °F 62% 30.14 in 10.0 mi WSW 8.1 mph - N/A   Clear
8:13 PM -2.2 °F -15.6 °F -12.5 °F 62% 30.13 in 10.0 mi SW 6.9 mph - N/A   Clear
8:33 PM -3.1 °F -15.2 °F -12.5 °F 64% 30.13 in 10.0 mi WSW 5.8 mph - N/A   Clear
8:52 PM -3.3 °F -15.4 °F -13.0 °F 63% 30.13 in 10.0 mi WSW 5.8 mph - N/A   Clear
9:13 PM -4.0 °F -14.6 °F -13.4 °F 64% 30.13 in 10.0 mi WSW 4.6 mph - N/A   Clear
9:32 PM -4.9 °F -17.4 °F -13.9 °F 65% 30.12 in 10.0 mi WSW 5.8 mph - N/A   Clear
9:53 PM -4.2 °F -19.3 °F -13.0 °F 66% 30.11 in 10.0 mi SW 8.1 mph - N/A   Clear
10:13 PM -4.7 °F -17.2 °F -13.2 °F 67% 30.11 in 10.0 mi WSW 5.8 mph - N/A   Clear
10:33 PM -4.4 °F -19.5 °F -13.0 °F 66% 30.10 in 10.0 mi SW 8.1 mph - N/A   Clear
10:52 PM -4.4 °F -19.5 °F -13.0 °F 66% 30.09 in 10.0 mi SW 8.1 mph - N/A   Clear
11:13 PM -4.5 °F -18.4 °F -13.0 °F 67% 30.09 in 10.0 mi SW 6.9 mph - N/A   Clear
11:33 PM -4.5 °F -16.9 °F -13.0 °F 67% 30.10 in 10.0 mi SW 5.8 mph - N/A   Clear
11:53 PM -6.7 °F -17.7 °F -14.6 °F 68% 30.09 in 10.0 mi SW 4.6 mph - N/A   Clear